Uvalde, Texas, United States (78801)
Lat: 29.21N, Lon: 99.79W
Wx Zone: TXZ203
Local Info
Past Weather Observations for Today

NOTE: This archive is for the closest National Weather Service station to Uvalde. Information may differ from the station used for current weather conditions.

Click here for Long-term Archive

Time Weather Temperature Dewpoint Humidity Pressure Winds Precip Visibility
18:15
Overcast
Fog And Mist
41°F / 5°C 41°F / 5°C 100% 30.18 in
(1022 mb)
ENE 8.1 mph
(ENE 13 kph)
- 3SM
17:35
Overcast
Fog And Mist
41°F / 5°C 41°F / 5°C 100% 30.18 in
(1022 mb)
NE 8.1 mph
(NE 13 kph)
- 3SM
17:15
Overcast
Fog And Mist
41°F / 5°C 41°F / 5°C 100% 30.18 in
(1022 mb)
ENE 8.1 mph
(ENE 13 kph)
- 5SM
16:55
Overcast
Fog And Mist
41°F / 5°C 41°F / 5°C 100% 30.18 in
(1022 mb)
ENE 6.9 mph
(ENE 11 kph)
- 5SM
16:35
Overcast
Fog And Mist
41°F / 5°C 41°F / 5°C 100% 30.18 in
(1022 mb)
ENE 8.1 mph
(ENE 13 kph)
- 5SM
16:15
Overcast
Fog And Mist
41°F / 5°C 41°F / 5°C 100% 30.21 in
(1023 mb)
ENE 5.8 mph
(ENE 9 kph)
- 3SM
15:55
Overcast
Fog And Mist
41°F / 5°C 39°F / 4°C 93% 30.21 in
(1023 mb)
NE 5.8 mph
(NE 9 kph)
- 2 1/2SM
15:35
Overcast
Fog And Mist
41°F / 5°C 39°F / 4°C 93% 30.18 in
(1022 mb)
ENE 5.8 mph
(ENE 9 kph)
- 2 1/2SM
15:15
Overcast
Fog And Mist
41°F / 5°C 39°F / 4°C 93% 30.21 in
(1023 mb)
ENE 4.6 mph
(ENE 7 kph)
- 3SM
14:55
Overcast
Fog And Mist
41°F / 5°C 39°F / 4°C 93% 30.21 in
(1023 mb)
ENE 5.8 mph
(ENE 9 kph)
- 4SM
14:35
Overcast
Fog And Mist
41°F / 5°C 39°F / 4°C 93% 30.21 in
(1023 mb)
NE 5.8 mph
(NE 9 kph)
- 4SM
14:15
Overcast
Drizzle
41°F / 5°C 39°F / 4°C 93% 30.21 in
(1023 mb)
NNE 3.5 mph
(NNE 6 kph)
- 2 1/2SM
13:55
Overcast
Drizzle
41°F / 5°C 39°F / 4°C 93% 30.24 in
(1024 mb)
ENE 4.6 mph
(ENE 7 kph)
- 1 3/4SM
13:35
Overcast
Drizzle
41°F / 5°C 39°F / 4°C 93% 30.24 in
(1024 mb)
Calm - 2SM
13:15
Overcast
Fog And Mist
39°F / 4°C 37°F / 3°C 93% 30.24 in
(1024 mb)
NE 3.5 mph
(NE 6 kph)
- 2 1/2SM
12:55
Overcast
Drizzle
39°F / 4°C 37°F / 3°C 93% 30.24 in
(1024 mb)
NE 4.6 mph
(NE 7 kph)
- 3SM
12:35
Overcast
Drizzle
39°F / 4°C 37°F / 3°C 93% 30.27 in
(1025 mb)
Calm - 1 1/2SM
12:15
Overcast
Fog And Mist
39°F / 4°C 37°F / 3°C 93% 30.27 in
(1025 mb)
N 3.5 mph
(N 6 kph)
- 2SM
11:55
Overcast
Fog And Mist
39°F / 4°C 37°F / 3°C 93% 30.27 in
(1025 mb)
NE 4.6 mph
(NE 7 kph)
- 4SM
11:35
Partly Cloudy
Fog And Mist
37°F / 3°C 37°F / 3°C 100% 30.27 in
(1025 mb)
Calm - 3SM
11:15
Obscured
Drizzle
37°F / 3°C 37°F / 3°C 100% 30.27 in
(1025 mb)
ENE 4.6 mph
(ENE 7 kph)
- 1 3/4SM
10:55
Mostly Cloudy
Drizzle
37°F / 3°C 36°F / 2°C 93% 30.3 in
(1026 mb)
NE 3.5 mph
(NE 6 kph)
- 1 3/4SM
10:35
Overcast
Fog And Mist
37°F / 3°C 36°F / 2°C 93% 30.3 in
(1026 mb)
Calm - 2SM
10:15
Overcast
Fog And Mist
36°F / 2°C 36°F / 2°C 100% 30.3 in
(1026 mb)
Calm - 2SM
09:55
Overcast
Fog And Mist
36°F / 2°C 36°F / 2°C 100% 30.3 in
(1026 mb)
Calm - 1 1/2SM
09:35
Overcast
Drizzle
36°F / 2°C 36°F / 2°C 100% 30.27 in
(1025 mb)
NE 4.6 mph
(NE 7 kph)
- 1 1/2SM
09:15
Overcast
Drizzle
36°F / 2°C 34°F / 1°C 93% 30.27 in
(1025 mb)
ENE 4.6 mph
(ENE 7 kph)
- 1 3/4SM
08:55
Overcast
Fog And Mist
36°F / 2°C 34°F / 1°C 93% 30.27 in
(1025 mb)
ENE 4.6 mph
(ENE 7 kph)
- 2SM
08:35
Overcast
Rain
36°F / 2°C 34°F / 1°C 93% 30.27 in
(1025 mb)
NE 4.6 mph
(NE 7 kph)
- 1 1/2SM
08:15
Overcast
Drizzle
36°F / 2°C 34°F / 1°C 93% 30.27 in
(1025 mb)
NE 3.5 mph
(NE 6 kph)
- 1 3/4SM
07:55
Overcast
Drizzle
36°F / 2°C 34°F / 1°C 93% 30.27 in
(1025 mb)
NE 4.6 mph
(NE 7 kph)
- 1 1/2SM
07:35
Overcast
Fog And Mist
36°F / 2°C 34°F / 1°C 93% 30.27 in
(1025 mb)
NE 4.6 mph
(NE 7 kph)
- 4SM
07:15
Overcast
Fog And Mist
34°F / 1°C 34°F / 1°C 100% 30.27 in
(1025 mb)
NE 4.6 mph
(NE 7 kph)
- 4SM
06:55
Overcast
Fog And Mist
34°F / 1°C 34°F / 1°C 100% 30.24 in
(1024 mb)
NE 4.6 mph
(NE 7 kph)
- 5SM
06:35
Overcast
Fog And Mist
34°F / 1°C 34°F / 1°C 100% 30.24 in
(1024 mb)
ENE 8.1 mph
(ENE 13 kph)
- 5SM
06:15
Overcast
Fog And Mist
36°F / 2°C 34°F / 1°C 93% 30.24 in
(1024 mb)
ENE 8.1 mph
(ENE 13 kph)
- 5SM
05:55
Overcast
Fog And Mist
36°F / 2°C 34°F / 1°C 93% 30.24 in
(1024 mb)
NE 6.9 mph
(NE 11 kph)
- 5SM
05:35
Overcast
Fog And Mist
34°F / 1°C 34°F / 1°C 100% 30.24 in
(1024 mb)
NE 6.9 mph
(NE 11 kph)
- 4SM
05:15
Overcast
Fog And Mist
34°F / 1°C 34°F / 1°C 100% 30.24 in
(1024 mb)
NE 5.8 mph
(NE 9 kph)
- 3SM
04:55
Overcast
Fog And Mist
36°F / 2°C 34°F / 1°C 93% 30.24 in
(1024 mb)
NE 8.1 mph
(NE 13 kph)
- 3SM
04:35
Overcast
Drizzle
34°F / 1°C 34°F / 1°C 100% 30.24 in
(1024 mb)
NE 5.8 mph
(NE 9 kph)
- 3SM
04:15
Overcast
Drizzle
34°F / 1°C 34°F / 1°C 100% 30.24 in
(1024 mb)
NE 6.9 mph
(NE 11 kph)
- 3SM
03:55
Overcast
Light Rain
34°F / 1°C 34°F / 1°C 100% 30.24 in
(1024 mb)
NE 3.5 mph
(NE 6 kph)
- 3SM
03:35
Partly Cloudy
Drizzle
34°F / 1°C 34°F / 1°C 100% 30.24 in
(1024 mb)
NE 5.8 mph
(NE 9 kph)
- 4SM
03:15
Drizzle
34°F / 1°C 34°F / 1°C 100% 30.27 in
(1025 mb)
NNE 3.5 mph
(NNE 6 kph)
- 2 1/2SM
02:55
Drizzle
34°F / 1°C 32°F / 0°C 93% 30.27 in
(1025 mb)
NE 5.8 mph
(NE 9 kph)
- 2 1/2SM
02:35
Overcast
Drizzle
34°F / 1°C 32°F / 0°C 93% 30.27 in
(1025 mb)
NNE 3.5 mph
(NNE 6 kph)
- 2 1/2SM
02:15
Overcast
Drizzle
32°F / 0°C 32°F / 0°C 100% 30.27 in
(1025 mb)
NNE 5.8 mph
(NNE 9 kph)
- 2 1/2SM
01:55
Overcast
Drizzle
32°F / 0°C 32°F / 0°C 100% 30.27 in
(1025 mb)
NNE 5.8 mph
(NNE 9 kph)
- 2 1/2SM
01:35
Overcast
Drizzle
32°F / 0°C 32°F / 0°C 100% 30.27 in
(1025 mb)
NE 5.8 mph
(NE 9 kph)
- 3SM
01:15
Overcast
Fog And Mist
32°F / 0°C 32°F / 0°C 100% 30.27 in
(1025 mb)
NE 6.9 mph
(NE 11 kph)
- 3SM
00:55
Overcast
Fog And Mist
32°F / 0°C 32°F / 0°C 100% 30.27 in
(1025 mb)
NE 5.8 mph
(NE 9 kph)
- 3SM
00:35
Overcast
Fog And Mist
32°F / 0°C 32°F / 0°C 100% 30.27 in
(1025 mb)
NE 6.9 mph
(NE 11 kph)
- 3SM
00:15
Overcast
Fog And Mist
34°F / 1°C 32°F / 0°C 93% 30.27 in
(1025 mb)
NE 6.9 mph
(NE 11 kph)
- 5SM
Time Weather Temperature Dewpoint Humidity Pressure Winds Precip Visibility


Weather for websites

WeatherForYou.com, LLC is not responsible for any damages or problems caused by this service. Current weather conditions are obtained from the closest station including government and personal stations which may have varying degrees of accuracy. Weather forecasts are derived from the NOAA NDFD. Like all things, this site belongs to Jesus Christ... He just trusts me to maintain it. If you have any questions or comments email webmaster@weatherforyou.com

Copyright © 2015, WeatherForYou.com LLC. All rights reserved.